User: anonymous   Login
Location: Friaudour
(46.0460°N, 1.2873°E)
Time: 15:39:36
(UTC+00:00)
Language:

Meteor 2-20 Rocket - Orbit

View from above orbital plane
View from above orbital plane
View from above satellite
View from above satellite

Ground track
Ground track

The orbit data is extracted from the following two-line orbital elements,

1 20827U 90086B   20271.47435981  .00000028  00000-0  11365-4 0  9995
2 20827  82.5252  66.2335 0013714 135.8585 224.3672 13.83900663515322
Epoch (UTC): 27 September 2020 11:23:04
Eccentricity: 0.0013714
inclination: 82.5252°
perigee height: 940 km
apogee height: 960 km
right ascension of ascending node: 66.2335°
argument of perigee: 135.8585°
revolutions per day: 13.83900663
mean anomaly at epoch: 224.3672°
orbit number at epoch: 51532

The dashed part of the orbit path shows where the satellite is in the earth's shadow,  

DLR